| time (UTC) | temp F | wind direction | speed MPH | gust MPH | rain 1hr in | rain 24hr in | rain mn in | humidity % | barometer mb |
| 20260901205503 | 82 | 229 | 4.0 | 12.0 | 0.00 | 0.01 | 0.00 | 74 | 1014.4 |
| 20260901205024 | 82 | 242 | 4.0 | 12.0 | 0.00 | 0.01 | 0.00 | 74 | 1014.5 |
| 20260901204503 | 82 | 237 | 5.0 | 11.0 | 0.00 | 0.01 | 0.00 | 74 | 1014.4 |
| 20260901204024 | 82 | 222 | 5.0 | 11.0 | 0.00 | 0.01 | 0.00 | 74 | 1014.4 |
| 20260901203503 | 82 | 216 | 5.0 | 10.0 | 0.00 | 0.01 | 0.00 | 74 | 1014.5 |
| 20260901203003 | 82 | 217 | 5.0 | 11.0 | 0.00 | 0.01 | 0.00 | 74 | 1014.6 |
| 20260901202503 | 82 | 222 | 4.0 | 11.0 | 0.00 | 0.01 | 0.00 | 74 | 1014.6 |
| 20260901202024 | 82 | 216 | 4.0 | 10.0 | 0.00 | 0.01 | 0.00 | 74 | 1014.6 |
| 20260901201503 | 82 | 216 | 4.0 | 10.0 | 0.00 | 0.01 | 0.00 | 74 | 1014.7 |
| 20260901201003 | 82 | 218 | 4.0 | 10.0 | 0.00 | 0.01 | 0.00 | 75 | 1014.7 |
| 20260901200503 | 81 | 212 | 3.0 | 9.0 | 0.00 | 0.01 | 0.00 | 75 | 1014.7 |
| 20260901200024 | 81 | 216 | 3.0 | 9.0 | 0.00 | 0.02 | 0.00 | 76 | 1014.7 |
| 20260901195503 | 81 | 212 | 3.0 | 8.0 | 0.00 | 0.02 | 0.00 | 76 | 1014.5 |
| 20260901195003 | 81 | 219 | 4.0 | 9.0 | 0.00 | 0.02 | 0.00 | 76 | 1014.6 |
| 20260901194503 | 81 | 226 | 4.0 | 9.0 | 0.00 | 0.03 | 0.00 | 76 | 1014.7 |
| 20260901194003 | 81 | 217 | 3.0 | 8.0 | 0.00 | 0.03 | 0.00 | 76 | 1014.7 |
| 20260901193503 | 81 | 216 | 3.0 | 9.0 | 0.00 | 0.03 | 0.00 | 76 | 1014.6 |
| 20260901193003 | 81 | 204 | 4.0 | 10.0 | 0.00 | 0.04 | 0.00 | 76 | 1014.5 |
| 20260901192503 | 81 | 194 | 4.0 | 10.0 | 0.00 | 0.04 | 0.00 | 76 | 1014.5 |
| 20260901192003 | 81 | 200 | 5.0 | 12.0 | 0.00 | 0.04 | 0.00 | 75 | 1014.5 |
| 20260901191524 | 81 | 207 | 5.0 | 12.0 | 0.00 | 0.04 | 0.00 | 75 | 1014.6 |
| 20260901191003 | 81 | 220 | 4.0 | 12.0 | 0.00 | 0.05 | 0.00 | 76 | 1014.6 |
| 20260901190503 | 81 | 218 | 4.0 | 8.0 | 0.00 | 0.05 | 0.00 | 75 | 1014.7 |
| 20260901190003 | 81 | 215 | 5.0 | 15.0 | 0.00 | 0.05 | 0.00 | 75 | 1014.7 |
| 20260901185503 | 82 | 218 | 5.0 | 15.0 | 0.00 | 0.05 | 0.00 | 74 | 1014.7 |
| 20260901185024 | 82 | 216 | 5.0 | 13.0 | 0.00 | 0.05 | 0.00 | 74 | 1014.7 |
| 20260901184503 | 81 | 214 | 4.0 | 13.0 | 0.00 | 0.06 | 0.00 | 75 | 1014.7 |
| 20260901184003 | 82 | 214 | 4.0 | 11.0 | 0.00 | 0.06 | 0.00 | 74 | 1014.9 |
| 20260901183504 | 82 | 218 | 4.0 | 11.0 | 0.00 | 0.08 | 0.00 | 74 | 1014.8 |
| 20260901183003 | 82 | 226 | 5.0 | 11.0 | 0.00 | 0.09 | 0.00 | 75 | 1014.8 |
| 20260901182503 | 81 | 221 | 6.0 | 15.0 | 0.00 | 0.09 | 0.00 | 74 | 1014.9 |
| 20260901182003 | 81 | 218 | 6.0 | 15.0 | 0.00 | 0.09 | 0.00 | 73 | 1014.8 |
| 20260901181524 | 82 | 215 | 5.0 | 10.0 | 0.00 | 0.09 | 0.00 | 75 | 1014.6 |
| 20260901181003 | 82 | 216 | 4.0 | 12.0 | 0.00 | 0.09 | 0.00 | 74 | 1014.7 |
| 20260901180503 | 81 | 240 | 5.0 | 12.0 | 0.00 | 0.10 | 0.00 | 74 | 1014.7 |
| 20260901180003 | 81 | 256 | 5.0 | 12.0 | 0.00 | 0.11 | 0.00 | 75 | 1014.6 |
| 20260901175503 | 81 | 256 | 5.0 | 12.0 | 0.00 | 0.11 | 0.00 | 74 | 1014.7 |
| 20260901175003 | 82 | 248 | 5.0 | 15.0 | 0.00 | 0.11 | 0.00 | 74 | 1014.6 |
| 20260901174503 | 82 | 245 | 5.0 | 15.0 | 0.00 | 0.11 | 0.00 | 73 | 1014.5 |
| 20260901174003 | 82 | 239 | 4.0 | 11.0 | 0.00 | 0.11 | 0.00 | 74 | 1014.5 |
| 20260901173503 | 82 | 234 | 4.0 | 11.0 | 0.00 | 0.12 | 0.00 | 75 | 1014.4 |
| 20260901173003 | 82 | 226 | 4.0 | 11.0 | 0.00 | 0.12 | 0.00 | 74 | 1014.3 |
| 20260901172503 | 81 | 214 | 4.0 | 9.0 | 0.00 | 0.12 | 0.00 | 75 | 1014.1 |
| 20260901172003 | 81 | 214 | 3.0 | 8.0 | 0.00 | 0.12 | 0.00 | 76 | 1014.2 |
| 20260901171503 | 80 | 244 | 4.0 | 12.0 | 0.00 | 0.12 | 0.00 | 76 | 1014.1 |
| 20260901171024 | 80 | 260 | 5.0 | 12.0 | 0.00 | 0.12 | 0.00 | 76 | 1014.1 |
| 20260901170503 | 80 | 252 | 4.0 | 10.0 | 0.00 | 0.12 | 0.00 | 76 | 1014.0 |
| 20260901170003 | 80 | 226 | 4.0 | 8.0 | 0.00 | 0.12 | 0.00 | 76 | 1014.0 |
| 20260901165503 | 80 | 234 | 4.0 | 9.0 | 0.00 | 0.12 | 0.00 | 77 | 1014.1 |
| 20260901165003 | 80 | 239 | 4.0 | 9.0 | 0.00 | 0.12 | 0.00 | 77 | 1014.1 |
| 20260901164503 | 80 | 216 | 4.0 | 9.0 | 0.00 | 0.12 | 0.00 | 77 | 1014.2 |
| 20260901164003 | 80 | 212 | 3.0 | 8.0 | 0.00 | 0.12 | 0.00 | 78 | 1014.2 |
| 20260901163524 | 80 | 198 | 4.0 | 11.0 | 0.00 | 0.12 | 0.00 | 77 | 1014.2 |
| 20260901163024 | 80 | 200 | 5.0 | 11.0 | 0.00 | 0.12 | 0.00 | 76 | 1014.2 |
| 20260901162503 | 80 | 223 | 4.0 | 9.0 | 0.00 | 0.12 | 0.00 | 77 | 1014.3 |
| 20260901162003 | 80 | 222 | 4.0 | 10.0 | 0.00 | 0.12 | 0.00 | 79 | 1014.2 |
| 20260901161503 | 79 | 223 | 4.0 | 10.0 | 0.00 | 0.12 | 0.00 | 78 | 1014.2 |
| 20260901161003 | 79 | 212 | 4.0 | 10.0 | 0.00 | 0.12 | 0.00 | 79 | 1014.2 |
| 20260901160503 | 79 | 212 | 3.0 | 9.0 | 0.00 | 0.12 | 0.00 | 80 | 1014.2 |
| 20260901160003 | 78 | 226 | 4.0 | 9.0 | 0.00 | 0.12 | 0.00 | 81 | 1014.0 |
| 20260901155503 | 78 | 230 | 3.0 | 8.0 | 0.00 | 0.12 | 0.00 | 80 | 1014.1 |
| 20260901155024 | 78 | 233 | 3.0 | 9.0 | 0.00 | 0.12 | 0.00 | 81 | 1014.1 |
| 20260901154503 | 78 | 241 | 4.0 | 9.0 | 0.00 | 0.12 | 0.00 | 81 | 1014.0 |
| 20260901154003 | 78 | 246 | 4.0 | 9.0 | 0.00 | 0.12 | 0.00 | 80 | 1014.0 |
| 20260901153503 | 78 | 247 | 3.0 | 9.0 | 0.00 | 0.12 | 0.00 | 80 | 1014.0 |
| 20260901153003 | 78 | 247 | 4.0 | 9.0 | 0.00 | 0.12 | 0.00 | 81 | 1014.0 |
| 20260901152503 | 78 | 247 | 4.0 | 9.0 | 0.00 | 0.12 | 0.00 | 81 | 1013.9 |
| 20260901152003 | 78 | 234 | 3.0 | 9.0 | 0.00 | 0.12 | 0.00 | 82 | 1013.8 |
| 20260901151503 | 78 | 222 | 3.0 | 10.0 | 0.00 | 0.12 | 0.00 | 82 | 1013.7 |
| 20260901151003 | 78 | 235 | 4.0 | 10.0 | 0.00 | 0.12 | 0.00 | 82 | 1013.9 |
| 20260901150503 | 78 | 246 | 4.0 | 9.0 | 0.00 | 0.13 | 0.00 | 82 | 1014.0 |
| 20260901150003 | 78 | 220 | 4.0 | 9.0 | 0.00 | 0.13 | 0.00 | 82 | 1014.0 |
| 20260901145503 | 78 | 195 | 4.0 | 11.0 | 0.00 | 0.13 | 0.00 | 82 | 1013.9 |
| 20260901145003 | 78 | 204 | 3.0 | 11.0 | 0.00 | 0.14 | 0.00 | 82 | 1013.8 |
| 20260901144503 | 78 | 200 | 4.0 | 12.0 | 0.00 | 0.16 | 0.00 | 82 | 1013.8 |
| 20260901144024 | 78 | 205 | 3.0 | 12.0 | 0.00 | 0.18 | 0.00 | 82 | 1013.8 |
| 20260901143503 | 78 | 227 | 2.0 | 6.0 | 0.00 | 0.20 | 0.00 | 84 | 1013.8 |
| 20260901143003 | 77 | 226 | 2.0 | 9.0 | 0.00 | 0.25 | 0.00 | 84 | 1013.9 |
| 20260901142503 | 77 | 223 | 3.0 | 9.0 | 0.00 | 0.35 | 0.00 | 84 | 1014.0 |
| 20260901142003 | 77 | 220 | 2.0 | 5.0 | 0.00 | 0.42 | 0.00 | 84 | 1014.0 |
| 20260901141524 | 77 | 212 | 2.0 | 6.0 | 0.00 | 0.43 | 0.00 | 85 | 1014.0 |
| 20260901141024 | 76 | 216 | 3.0 | 6.0 | 0.00 | 0.43 | 0.00 | 85 | 1014.1 |
| 20260901140503 | 76 | 238 | 3.0 | 10.0 | 0.00 | 0.45 | 0.00 | 86 | 1014.0 |
| 20260901140003 | 76 | 232 | 3.0 | 10.0 | 0.00 | 0.48 | 0.00 | 85 | 1014.1 |
| 20260901135503 | 76 | 218 | 3.0 | 7.0 | 0.00 | 0.48 | 0.00 | 86 | 1014.0 |
| 20260901135003 | 76 | 220 | 3.0 | 7.0 | 0.00 | 0.49 | 0.00 | 86 | 1014.0 |
| 20260901134503 | 76 | 213 | 2.0 | 7.0 | 0.00 | 0.52 | 0.00 | 86 | 1014.0 |
| 20260901134003 | 76 | 222 | 3.0 | 8.0 | 0.00 | 0.54 | 0.00 | 86 | 1014.0 |
| 20260901133503 | 76 | 240 | 3.0 | 8.0 | 0.00 | 0.55 | 0.00 | 87 | 1014.0 |
| 20260901133003 | 76 | 248 | 3.0 | 7.0 | 0.00 | 0.55 | 0.00 | 87 | 1014.0 |
| 20260901132524 | 76 | 252 | 3.0 | 5.0 | 0.00 | 0.59 | 0.00 | 87 | 1014.2 |
| 20260901132003 | 76 | 246 | 3.0 | 10.0 | 0.00 | 0.63 | 0.00 | 87 | 1014.2 |
| 20260901131503 | 75 | 230 | 3.0 | 10.0 | 0.00 | 0.65 | 0.00 | 87 | 1014.3 |
| 20260901131003 | 75 | 226 | 3.0 | 8.0 | 0.00 | 0.65 | 0.00 | 87 | 1014.3 |
| 20260901130503 | 75 | 231 | 2.0 | 8.0 | 0.00 | 0.66 | 0.00 | 87 | 1014.3 |
| 20260901130003 | 75 | 229 | 3.0 | 7.0 | 0.00 | 0.67 | 0.00 | 87 | 1014.4 |
| 20260901125503 | 75 | 222 | 3.0 | 7.0 | 0.00 | 0.67 | 0.00 | 87 | 1014.3 |
| 20260901125003 | 75 | 214 | 2.0 | 6.0 | 0.00 | 0.67 | 0.00 | 87 | 1014.4 |
| 20260901124524 | 75 | 226 | 3.0 | 9.0 | 0.00 | 0.67 | 0.00 | 87 | 1014.3 |
| 20260901124003 | 75 | 217 | 3.0 | 9.0 | 0.00 | 0.67 | 0.00 | 87 | 1014.3 |
| 20260901123503 | 75 | 211 | 2.0 | 9.0 | 0.00 | 0.67 | 0.00 | 87 | 1014.2 |
| 20260901123024 | 75 | 226 | 3.0 | 9.0 | 0.00 | 0.67 | 0.00 | 87 | 1014.1 |
| 20260901122503 | 75 | 223 | 3.0 | 8.0 | 0.00 | 0.67 | 0.00 | 87 | 1014.1 |
| 20260901122003 | 75 | 224 | 3.0 | 8.0 | 0.00 | 0.67 | 0.00 | 87 | 1014.0 |
| 20260901121503 | 75 | 229 | 3.0 | 10.0 | 0.00 | 0.67 | 0.00 | 87 | 1014.0 |
| 20260901121003 | 75 | 218 | 3.0 | 10.0 | 0.00 | 0.67 | 0.00 | 87 | 1014.1 |
| 20260901120524 | 75 | 209 | 3.0 | 10.0 | 0.00 | 0.67 | 0.00 | 87 | 1013.8 |
| 20260901120003 | 75 | 218 | 3.0 | 10.0 | 0.00 | 0.67 | 0.00 | 86 | 1013.9 |
| 20260901115503 | 75 | 226 | 3.0 | 10.0 | 0.00 | 0.68 | 0.00 | 86 | 1014.0 |
| 20260901115024 | 75 | 230 | 3.0 | 9.0 | 0.00 | 0.68 | 0.00 | 86 | 1013.8 |
| 20260901114503 | 75 | 228 | 3.0 | 8.0 | 0.00 | 0.68 | 0.00 | 86 | 1013.8 |
| 20260901114003 | 75 | 225 | 3.0 | 11.0 | 0.00 | 0.68 | 0.00 | 85 | 1013.8 |
| 20260901113503 | 75 | 240 | 3.0 | 11.0 | 0.00 | 0.68 | 0.00 | 85 | 1013.9 |
| 20260901113024 | 75 | 240 | 3.0 | 9.0 | 0.00 | 0.68 | 0.00 | 84 | 1013.8 |
| 20260901112503 | 75 | 232 | 3.0 | 10.0 | 0.00 | 0.68 | 0.00 | 84 | 1013.8 |
| 20260901112003 | 75 | 240 | 3.0 | 10.0 | 0.00 | 0.68 | 0.00 | 83 | 1013.8 |
| 20260901111503 | 75 | 235 | 3.0 | 8.0 | 0.00 | 0.68 | 0.00 | 83 | 1013.7 |
| 20260901111003 | 75 | 236 | 3.0 | 17.0 | 0.00 | 0.68 | 0.00 | 83 | 1013.7 |
| 20260901110524 | 75 | 236 | 3.0 | 17.0 | 0.00 | 0.68 | 0.00 | 82 | 1013.7 |
| 20260901110003 | 75 | 223 | 3.0 | 7.0 | 0.00 | 0.68 | 0.00 | 82 | 1013.6 |
| 20260901105503 | 75 | 220 | 3.0 | 7.0 | 0.00 | 0.68 | 0.00 | 82 | 1013.6 |
| 20260901105003 | 75 | 218 | 3.0 | 8.0 | 0.00 | 0.68 | 0.00 | 82 | 1013.5 |
| 20260901104503 | 74 | 216 | 2.0 | 8.0 | 0.00 | 0.68 | 0.00 | 82 | 1013.4 |
| 20260901104003 | 74 | 218 | 2.0 | 6.0 | 0.00 | 0.68 | 0.00 | 82 | 1013.4 |
| 20260901103503 | 74 | 218 | 2.0 | 5.0 | 0.00 | 0.68 | 0.00 | 82 | 1013.4 |
| 20260901103003 | 74 | 220 | 2.0 | 6.0 | 0.00 | 0.68 | 0.00 | 83 | 1013.4 |
| 20260901102503 | 73 | 221 | 2.0 | 6.0 | 0.00 | 0.68 | 0.00 | 83 | 1013.3 |
| 20260901102024 | 73 | 217 | 1.0 | 5.0 | 0.00 | 0.68 | 0.00 | 84 | 1013.1 |
| 20260901101503 | 73 | 215 | 2.0 | 5.0 | 0.00 | 0.68 | 0.00 | 85 | 1013.1 |
| 20260901101003 | 72 | 215 | 1.0 | 4.0 | 0.00 | 0.68 | 0.00 | 87 | 1012.9 |
| 20260901100503 | 72 | 215 | 1.0 | 3.0 | 0.00 | 0.68 | 0.00 | 88 | 1012.9 |
| 20260901100003 | 71 | 215 | 1.0 | 3.0 | 0.00 | 0.68 | 0.00 | 90 | 1012.8 |
| 20260901095503 | 71 | 215 | 1.0 | 5.0 | 0.00 | 0.68 | 0.00 | 91 | 1012.8 |
| 20260901095003 | 70 | 215 | 1.0 | 5.0 | 0.00 | 0.68 | 0.00 | 92 | 1012.9 |
| 20260901094503 | 70 | 216 | 0.0 | 2.0 | 0.00 | 0.68 | 0.00 | 92 | 1012.9 |
| 20260901094003 | 70 | 0 | 0.0 | 0.0 | 0.00 | 0.68 | 0.00 | 93 | 1012.9 |
| 20260901093503 | 70 | 0 | 0.0 | 0.0 | 0.00 | 0.68 | 0.00 | 93 | 1012.9 |
| 20260901093024 | 70 | 0 | 0.0 | 0.0 | 0.00 | 0.68 | 0.00 | 93 | 1012.9 |
| 20260901092503 | 70 | 0 | 0.0 | 0.0 | 0.00 | 0.68 | 0.00 | 93 | 1012.9 |
| 20260901092003 | 70 | 0 | 0.0 | 0.0 | 0.00 | 0.68 | 0.00 | 93 | 1012.9 |
| 20260901091503 | 70 | 0 | 0.0 | 0.0 | 0.00 | 0.68 | 0.00 | 93 | 1012.9 |
| 20260901091003 | 70 | 0 | 0.0 | 0.0 | 0.00 | 0.68 | 0.00 | 93 | 1012.9 |
| 20260901090503 | 70 | 0 | 0.0 | 0.0 | 0.00 | 0.68 | 0.00 | 93 | 1012.9 |
| 20260901090003 | 70 | 0 | 0.0 | 0.0 | 0.00 | 0.68 | 0.00 | 93 | 1012.9 |
| 20260901085503 | 70 | 0 | 0.0 | 0.0 | 0.00 | 0.68 | 0.00 | 93 | 1012.9 |
| 20260901085003 | 70 | 0 | 0.0 | 0.0 | 0.00 | 0.68 | 0.00 | 93 | 1012.8 |
| 20260901084503 | 70 | 0 | 0.0 | 0.0 | 0.00 | 0.68 | 0.00 | 93 | 1012.8 |
| 20260901084003 | 70 | 0 | 0.0 | 0.0 | 0.00 | 0.68 | 0.00 | 93 | 1012.9 |
| 20260901083503 | 70 | 0 | 0.0 | 0.0 | 0.00 | 0.68 | 0.00 | 93 | 1012.9 |
| 20260901083024 | 70 | 0 | 0.0 | 0.0 | 0.00 | 0.68 | 0.00 | 93 | 1012.9 |
| 20260901082503 | 70 | 0 | 0.0 | 0.0 | 0.00 | 0.68 | 0.00 | 93 | 1013.0 |
| 20260901082024 | 70 | 0 | 0.0 | 0.0 | 0.00 | 0.68 | 0.00 | 93 | 1012.9 |
| 20260901081503 | 69 | 0 | 0.0 | 0.0 | 0.00 | 0.68 | 0.00 | 93 | 1012.9 |
| 20260901081024 | 69 | 0 | 0.0 | 0.0 | 0.00 | 0.68 | 0.00 | 93 | 1012.9 |
| 20260901080503 | 69 | 0 | 0.0 | 0.0 | 0.00 | 0.68 | 0.00 | 93 | 1013.0 |
| 20260901080003 | 69 | 0 | 0.0 | 0.0 | 0.00 | 0.69 | 0.00 | 93 | 1012.9 |
| 20260901075503 | 69 | 0 | 0.0 | 0.0 | 0.00 | 0.69 | 0.00 | 93 | 1013.0 |
| 20260901075003 | 69 | 0 | 0.0 | 0.0 | 0.00 | 0.69 | 0.00 | 93 | 1013.2 |
| 20260901074503 | 69 | 0 | 0.0 | 0.0 | 0.00 | 0.70 | 0.00 | 93 | 1013.3 |
| 20260901074003 | 69 | 0 | 0.0 | 0.0 | 0.00 | 0.70 | 0.00 | 93 | 1013.4 |
| 20260901073503 | 69 | 0 | 0.0 | 0.0 | 0.00 | 0.71 | 0.00 | 93 | 1013.4 |
| 20260901073003 | 69 | 0 | 0.0 | 0.0 | 0.00 | 0.71 | 0.00 | 93 | 1013.4 |
| 20260901072503 | 69 | 0 | 0.0 | 0.0 | 0.00 | 0.72 | 0.00 | 93 | 1013.5 |
| 20260901072003 | 69 | 0 | 0.0 | 0.0 | 0.00 | 0.72 | 0.00 | 93 | 1013.6 |
| 20260901071524 | 69 | 0 | 0.0 | 0.0 | 0.00 | 0.72 | 0.00 | 93 | 1013.6 |
| 20260901071024 | 69 | 0 | 0.0 | 0.0 | 0.00 | 0.73 | 0.00 | 93 | 1013.7 |
| 20260901070503 | 69 | 0 | 0.0 | 0.0 | 0.00 | 0.73 | 0.00 | 93 | 1013.8 |
| 20260901070003 | 69 | 0 | 0.0 | 0.0 | 0.00 | 0.74 | 0.00 | 93 | 1013.8 |
| 20260901065503 | 69 | 0 | 0.0 | 0.0 | 0.00 | 0.74 | 0.00 | 93 | 1013.9 |
| 20260901065003 | 69 | 0 | 0.0 | 0.0 | 0.00 | 0.74 | 0.00 | 93 | 1014.0 |
| 20260901064503 | 69 | 0 | 0.0 | 0.0 | 0.00 | 0.74 | 0.00 | 93 | 1014.1 |
| 20260901064003 | 69 | 0 | 0.0 | 0.0 | 0.00 | 0.75 | 0.00 | 93 | 1014.1 |
| 20260901063503 | 69 | 0 | 0.0 | 0.0 | 0.00 | 0.75 | 0.00 | 93 | 1014.2 |
| 20260901063003 | 69 | 0 | 0.0 | 0.0 | 0.00 | 0.76 | 0.00 | 93 | 1014.2 |
| 20260901062503 | 69 | 0 | 0.0 | 0.0 | 0.00 | 0.76 | 0.00 | 93 | 1014.2 |
| 20260901062003 | 69 | 0 | 0.0 | 0.0 | 0.00 | 0.76 | 0.00 | 93 | 1014.4 |
| 20260901061503 | 69 | 0 | 0.0 | 0.0 | 0.00 | 0.76 | 0.00 | 93 | 1014.4 |
| 20260901061003 | 69 | 0 | 0.0 | 0.0 | 0.00 | 0.76 | 0.00 | 93 | 1014.5 |
| 20260901060503 | 69 | 0 | 0.0 | 0.0 | 0.00 | 0.76 | 0.00 | 93 | 1014.5 |
| 20260901060003 | 69 | 0 | 0.0 | 0.0 | 0.00 | 0.76 | 0.00 | 93 | 1014.5 |
| 20260901055503 | 69 | 0 | 0.0 | 0.0 | 0.00 | 0.76 | 0.00 | 93 | 1014.6 |
| 20260901055003 | 69 | 0 | 0.0 | 0.0 | 0.00 | 0.76 | 0.00 | 93 | 1014.6 |
| 20260901054524 | 69 | 0 | 0.0 | 0.0 | 0.00 | 0.76 | 0.00 | 93 | 1014.6 |
| 20260901054003 | 69 | 0 | 0.0 | 0.0 | 0.00 | 0.76 | 0.00 | 93 | 1014.7 |
| 20260901053503 | 69 | 0 | 0.0 | 0.0 | 0.00 | 0.76 | 0.00 | 93 | 1014.7 |
| 20260901053003 | 69 | 0 | 0.0 | 0.0 | 0.00 | 0.76 | 0.00 | 93 | 1014.7 |
| 20260901052503 | 69 | 0 | 0.0 | 0.0 | 0.00 | 0.76 | 0.00 | 93 | 1014.7 |
| 20260901052003 | 69 | 0 | 0.0 | 0.0 | 0.00 | 0.76 | 0.00 | 93 | 1014.7 |
| 20260901051503 | 69 | 0 | 0.0 | 0.0 | 0.00 | 0.76 | 0.00 | 93 | 1014.9 |
| 20260901051003 | 69 | 0 | 0.0 | 0.0 | 0.00 | 0.76 | 0.00 | 93 | 1014.9 |
| 20260901050503 | 69 | 0 | 0.0 | 0.0 | 0.00 | 0.76 | 0.00 | 93 | 1014.9 |
| 20260901050003 | 69 | 0 | 0.0 | 0.0 | 0.00 | 0.76 | 0.00 | 93 | 1014.9 |
| 20260901045503 | 69 | 0 | 0.0 | 0.0 | 0.01 | 0.76 | 0.00 | 93 | 1014.9 |
| 20260901045003 | 69 | 0 | 0.0 | 0.0 | 0.01 | 0.76 | 0.00 | 93 | 1014.9 |
| 20260901044524 | 69 | 0 | 0.0 | 0.0 | 0.01 | 0.76 | 0.00 | 93 | 1015.2 |
| 20260901044003 | 69 | 0 | 0.0 | 0.0 | 0.01 | 0.76 | 0.00 | 93 | 1015.5 |
| 20260901043503 | 69 | 0 | 0.0 | 0.0 | 0.01 | 0.76 | 0.00 | 93 | 1015.4 |
| 20260901043003 | 69 | 0 | 0.0 | 0.0 | 0.01 | 0.76 | 0.00 | 93 | 1015.4 |
| 20260901042503 | 69 | 0 | 0.0 | 0.0 | 0.01 | 0.76 | 0.00 | 93 | 1015.5 |
| 20260901042003 | 69 | 0 | 0.0 | 0.0 | 0.01 | 0.76 | 0.00 | 93 | 1015.5 |
| 20260901041524 | 69 | 0 | 0.0 | 0.0 | 0.01 | 0.76 | 0.00 | 93 | 1015.5 |
| 20260901041003 | 69 | 0 | 0.0 | 0.0 | 0.01 | 0.76 | 0.00 | 93 | 1015.6 |
| 20260901040503 | 69 | 0 | 0.0 | 0.0 | 0.01 | 0.77 | 0.00 | 93 | 1015.4 |
| 20260901040003 | 69 | 216 | 0.0 | 2.0 | 0.01 | 0.77 | 0.00 | 92 | 1015.4 |
| 20260901035524 | 69 | 216 | 1.0 | 2.0 | 0.00 | 0.76 | 0.76 | 92 | 1015.5 |
| 20260901035003 | 69 | 216 | 0.0 | 2.0 | 0.00 | 0.76 | 0.76 | 92 | 1015.5 |
| 20260901034503 | 69 | 216 | 0.0 | 2.0 | 0.00 | 0.76 | 0.76 | 92 | 1015.5 |
| 20260901034003 | 69 | 0 | 0.0 | 0.0 | 0.00 | 0.76 | 0.76 | 92 | 1015.6 |
| 20260901033503 | 69 | 0 | 0.0 | 0.0 | 0.00 | 0.76 | 0.76 | 92 | 1015.7 |
| 20260901033003 | 69 | 216 | 0.0 | 2.0 | 0.00 | 0.76 | 0.76 | 92 | 1015.7 |
| 20260901032524 | 69 | 216 | 0.0 | 3.0 | 0.00 | 0.76 | 0.76 | 92 | 1015.6 |
| 20260901032003 | 69 | 216 | 0.0 | 3.0 | 0.00 | 0.76 | 0.76 | 92 | 1015.6 |
| 20260901031504 | 69 | 0 | 0.0 | 0.0 | 0.00 | 0.76 | 0.76 | 92 | 1015.6 |
| 20260901031003 | 69 | 0 | 0.0 | 0.0 | 0.00 | 0.76 | 0.76 | 92 | 1015.7 |
| 20260901030503 | 69 | 0 | 0.0 | 0.0 | 0.00 | 0.76 | 0.76 | 92 | 1015.8 |
| 20260901030003 | 69 | 0 | 0.0 | 0.0 | 0.00 | 0.76 | 0.76 | 92 | 1016.0 |
| 20260901025503 | 69 | 0 | 0.0 | 0.0 | 0.00 | 0.76 | 0.76 | 92 | 1016.0 |
| 20260901025003 | 69 | 0 | 0.0 | 0.0 | 0.00 | 0.76 | 0.76 | 92 | 1016.0 |
| 20260901024524 | 69 | 0 | 0.0 | 0.0 | 0.00 | 0.77 | 0.76 | 92 | 1016.1 |
| 20260901024003 | 69 | 0 | 0.0 | 0.0 | 0.00 | 0.77 | 0.76 | 92 | 1016.2 |
| 20260901023503 | 69 | 0 | 0.0 | 0.0 | 0.00 | 0.78 | 0.76 | 92 | 1016.2 |
| 20260901023003 | 70 | 0 | 0.0 | 0.0 | 0.00 | 0.81 | 0.76 | 92 | 1016.3 |
| 20260901022503 | 70 | 0 | 0.0 | 0.0 | 0.00 | 0.83 | 0.76 | 92 | 1016.2 |
| 20260901022003 | 70 | 0 | 0.0 | 0.0 | 0.00 | 0.84 | 0.76 | 92 | 1016.3 |
| 20260901021524 | 70 | 0 | 0.0 | 0.0 | 0.00 | 0.85 | 0.76 | 92 | 1016.4 |
| 20260901021003 | 70 | 0 | 0.0 | 0.0 | 0.00 | 0.86 | 0.76 | 92 | 1016.5 |
| 20260901020503 | 70 | 0 | 0.0 | 0.0 | 0.00 | 0.88 | 0.76 | 92 | 1016.5 |
| 20260901020003 | 70 | 0 | 0.0 | 0.0 | 0.00 | 0.88 | 0.76 | 92 | 1016.5 |
| 20260901015503 | 70 | 0 | 0.0 | 0.0 | 0.00 | 0.88 | 0.76 | 92 | 1016.5 |
| 20260901015003 | 70 | 0 | 0.0 | 0.0 | 0.00 | 0.88 | 0.76 | 92 | 1016.4 |
| 20260901014503 | 70 | 0 | 0.0 | 0.0 | 0.00 | 0.88 | 0.76 | 92 | 1016.5 |
| 20260901014024 | 70 | 0 | 0.0 | 0.0 | 0.00 | 0.88 | 0.76 | 91 | 1016.6 |
| 20260901013503 | 70 | 0 | 0.0 | 0.0 | 0.00 | 0.88 | 0.76 | 91 | 1016.5 |
| 20260901013003 | 70 | 0 | 0.0 | 0.0 | 0.00 | 0.88 | 0.76 | 91 | 1016.5 |
| 20260901012503 | 70 | 0 | 0.0 | 0.0 | 0.00 | 0.88 | 0.76 | 91 | 1016.6 |
| 20260901012003 | 70 | 0 | 0.0 | 0.0 | 0.00 | 0.88 | 0.76 | 91 | 1016.5 |
| 20260901011524 | 70 | 0 | 0.0 | 0.0 | 0.00 | 0.88 | 0.76 | 91 | 1016.5 |
| 20260901011004 | 70 | 0 | 0.0 | 0.0 | 0.00 | 0.88 | 0.76 | 91 | 1016.5 |
| 20260901010503 | 70 | 0 | 0.0 | 0.0 | 0.00 | 0.88 | 0.76 | 91 | 1016.5 |
| 20260901010003 | 71 | 0 | 0.0 | 0.0 | 0.00 | 0.88 | 0.76 | 91 | 1016.4 |
| 20260901005503 | 71 | 0 | 0.0 | 0.0 | 0.00 | 0.88 | 0.76 | 91 | 1016.3 |
| 20260901005003 | 71 | 0 | 0.0 | 0.0 | 0.00 | 0.88 | 0.76 | 91 | 1016.4 |
| 20260901004503 | 71 | 0 | 0.0 | 0.0 | 0.00 | 0.88 | 0.76 | 91 | 1016.5 |
| 20260901004003 | 71 | 0 | 0.0 | 0.0 | 0.00 | 0.88 | 0.76 | 91 | 1016.5 |
| 20260901003503 | 71 | 0 | 0.0 | 0.0 | 0.00 | 0.88 | 0.76 | 90 | 1016.4 |
| 20260901003003 | 71 | 216 | 0.0 | 1.0 | 0.00 | 0.88 | 0.76 | 91 | 1016.3 |
| 20260901002503 | 71 | 216 | 0.0 | 1.0 | 0.00 | 0.88 | 0.76 | 90 | 1016.3 |
| 20260901002003 | 71 | 216 | 0.0 | 1.0 | 0.00 | 0.88 | 0.76 | 90 | 1016.2 |
| 20260901001503 | 71 | 216 | 0.0 | 1.0 | 0.00 | 0.88 | 0.76 | 90 | 1016.2 |
| 20260901001003 | 71 | 216 | 0.0 | 1.0 | 0.00 | 0.88 | 0.76 | 90 | 1016.2 |
| 20260901000503 | 71 | 216 | 0.0 | 1.0 | 0.00 | 0.88 | 0.76 | 90 | 1016.2 |
| 20260901000024 | 72 | 216 | 0.0 | 3.0 | 0.00 | 0.88 | 0.76 | 90 | 1016.3 |
| 20260831235524 | 72 | 216 | 0.0 | 3.0 | 0.00 | 0.88 | 0.76 | 90 | 1016.3 |
| 20260831235003 | 72 | 216 | 0.0 | 2.0 | 0.00 | 0.88 | 0.76 | 90 | 1016.3 |
| 20260831234503 | 72 | 216 | 0.0 | 1.0 | 0.00 | 0.88 | 0.76 | 90 | 1016.3 |
| 20260831234003 | 72 | 216 | 0.0 | 1.0 | 0.00 | 0.88 | 0.76 | 90 | 1016.3 |
| 20260831233503 | 72 | 216 | 0.0 | 2.0 | 0.00 | 0.88 | 0.76 | 90 | 1016.1 |
| 20260831233003 | 72 | 216 | 0.0 | 2.0 | 0.00 | 0.88 | 0.76 | 89 | 1016.2 |
| 20260831232503 | 72 | 0 | 0.0 | 0.0 | 0.00 | 0.88 | 0.76 | 89 | 1016.2 |
| 20260831232003 | 72 | 0 | 0.0 | 0.0 | 0.00 | 0.88 | 0.76 | 89 | 1016.2 |
| 20260831231524 | 72 | 216 | 0.0 | 3.0 | 0.00 | 0.88 | 0.76 | 89 | 1016.0 |
| 20260831231003 | 72 | 216 | 0.0 | 3.0 | 0.00 | 0.88 | 0.76 | 89 | 1016.2 |
| 20260831230503 | 72 | 216 | 0.0 | 2.0 | 0.00 | 0.88 | 0.76 | 89 | 1016.2 |
| 20260831230003 | 73 | 216 | 0.0 | 2.0 | 0.00 | 0.88 | 0.76 | 89 | 1016.3 |
| 20260831225503 | 73 | 216 | 1.0 | 3.0 | 0.00 | 0.88 | 0.76 | 89 | 1016.3 |
| 20260831225003 | 73 | 216 | 1.0 | 3.0 | 0.00 | 0.88 | 0.76 | 89 | 1016.4 |
| 20260831224503 | 73 | 216 | 1.0 | 3.0 | 0.00 | 0.88 | 0.76 | 89 | 1016.3 |
| 20260831224003 | 73 | 216 | 1.0 | 4.0 | 0.00 | 0.88 | 0.76 | 90 | 1016.3 |
| 20260831223503 | 73 | 216 | 2.0 | 5.0 | 0.00 | 0.88 | 0.76 | 89 | 1016.3 |
| 20260831223003 | 73 | 217 | 2.0 | 6.0 | 0.00 | 0.88 | 0.76 | 89 | 1016.3 |
| 20260831222503 | 73 | 217 | 2.0 | 6.0 | 0.00 | 0.88 | 0.76 | 90 | 1016.4 |
| 20260831222003 | 73 | 217 | 2.0 | 7.0 | 0.00 | 0.88 | 0.76 | 90 | 1016.5 |
| 20260831221503 | 73 | 210 | 2.0 | 7.0 | 0.00 | 0.88 | 0.76 | 90 | 1016.5 |
| 20260831221003 | 73 | 208 | 3.0 | 9.0 | 0.00 | 0.88 | 0.76 | 90 | 1016.4 |
| 20260831220503 | 73 | 212 | 3.0 | 10.0 | 0.00 | 0.88 | 0.76 | 90 | 1016.4 |
| 20260831220003 | 73 | 220 | 3.0 | 10.0 | 0.00 | 0.88 | 0.76 | 90 | 1016.5 |
| 20260831215503 | 73 | 227 | 3.0 | 8.0 | 0.00 | 0.88 | 0.76 | 90 | 1016.6 |
| 20260831215003 | 73 | 220 | 3.0 | 8.0 | 0.00 | 0.88 | 0.76 | 90 | 1016.7 |
| 20260831214503 | 73 | 220 | 4.0 | 11.0 | 0.00 | 0.88 | 0.76 | 90 | 1016.7 |
| 20260831214003 | 73 | 227 | 3.0 | 11.0 | 0.00 | 0.88 | 0.76 | 90 | 1016.6 |
| 20260831213503 | 73 | 227 | 3.0 | 6.0 | 0.00 | 0.88 | 0.76 | 91 | 1016.6 |
| 20260831213003 | 73 | 224 | 3.0 | 9.0 | 0.00 | 0.88 | 0.76 | 91 | 1016.5 |
| 20260831212503 | 73 | 221 | 3.0 | 9.0 | 0.00 | 0.88 | 0.76 | 91 | 1016.4 |
| 20260831212003 | 73 | 222 | 3.0 | 7.0 | 0.00 | 0.88 | 0.76 | 91 | 1016.4 |
| 20260831211524 | 73 | 222 | 2.0 | 7.0 | 0.00 | 0.88 | 0.76 | 91 | 1016.6 |
| 20260831211003 | 73 | 220 | 2.0 | 7.0 | 0.00 | 0.88 | 0.76 | 91 | 1016.5 |
| 20260831210503 | 73 | 220 | 2.0 | 7.0 | 0.00 | 0.88 | 0.76 | 91 | 1016.4 |
| 20260831210004 | 73 | 222 | 2.0 | 6.0 | 0.01 | 0.88 | 0.76 | 91 | 1016.4 |